HG5OJG-6 Weather Reports


time (UTC)temp
C
wind
direction
speed
KPH
gust
KPH
rain 1hr
cm
rain 24hr
cm
rain mn
cm
humidity
%
barometer
mb
20260905234554 18 278 6.4 12.9 0.00 0.03 0.00 61 1020.9
20260905233558 18 278 4.8 12.9 0.00 0.03 0.00 61 1020.8
20260905232602 18 293 4.8 11.3 0.00 0.03 0.00 61 1021.0
20260905231606 18 283 4.8 9.7 0.00 0.03 0.00 61 1021.0
20260905230610 18 256 4.8 9.7 0.00 0.03 0.00 61 1021.0
20260905225625 18 277 6.4 9.7 0.00 0.03 0.00 61 1020.9
20260905224629 18 298 4.8 9.7 0.00 0.03 0.00 60 1020.8
20260905223651 18 296 6.4 9.7 0.00 0.03 0.00 61 1021.0
20260905222607 18 277 6.4 11.3 0.00 0.03 0.00 61 1021.0
20260905221711 18 298 6.4 11.3 0.00 0.03 0.00 61 1020.9
20260905220634 18 283 6.4 9.7 0.00 0.03 0.00 61 1020.9
20260905215649 18 296 4.8 9.7 0.00 0.03 0.03 61 1020.8
20260905214713 18 285 4.8 12.9 0.00 0.03 0.03 61 1020.7
20260905213655 18 299 4.8 11.3 0.00 0.03 0.03 61 1020.7
20260905212620 18 305 4.8 12.9 0.00 0.03 0.03 61 1020.6
20260905211520 18 277 4.8 6.4 0.00 0.03 0.03 61 1020.5
20260905210618 18 288 3.2 6.4 0.00 0.03 0.03 60 1020.4
20260905205537 18 286 3.2 9.7 0.00 0.03 0.03 59 1020.5
20260905204541 18 284 3.2 6.4 0.00 0.03 0.03 59 1020.5
20260905203545 19 263 4.8 11.3 0.00 0.03 0.03 59 1020.4
20260905202549 19 274 6.4 12.9 0.00 0.03 0.03 59 1020.4
20260905201522 19 275 4.8 11.3 0.00 0.03 0.03 58 1020.4
20260905200518 19 286 3.2 9.7 0.00 0.03 0.03 57 1020.0
20260905195521 20 267 4.8 9.7 0.00 0.03 0.03 57 1019.9
20260905194527 20 279 4.8 6.4 0.00 0.03 0.03 56 1019.8
20260905193549 20 279 3.2 6.4 0.00 0.03 0.03 56 1019.5
20260905192715 20 280 4.8 9.7 0.00 0.03 0.03 55 1019.6
20260905191528 20 305 6.4 12.9 0.00 0.03 0.03 55 1019.4
20260905190552 20 301 8.0 14.5 0.00 0.03 0.03 55 1019.3
20260905185556 20 310 6.4 12.9 0.00 0.03 0.03 55 1019.4
20260905184619 20 323 4.8 11.3 0.00 0.03 0.03 55 1019.4
20260905183704 20 322 8.0 14.5 0.00 0.03 0.03 55 1019.1
20260905182537 20 308 3.2 9.7 0.00 0.03 0.03 54 1018.9
20260905181620 20 311 3.2 6.4 0.00 0.03 0.03 54 1018.8
20260905180544 20 310 3.2 6.4 0.00 0.03 0.03 53 1018.8
20260905175606 21 303 3.2 6.4 0.00 0.03 0.03 52 1018.7
20260905174610 21 302 3.2 9.7 0.00 0.03 0.03 51 1018.4
20260905173605 21 312 3.2 9.7 0.00 0.03 0.03 50 1018.3
20260905172541 22 318 1.6 4.8 0.00 0.03 0.03 49 1018.2
20260905171624 22 303 3.2 6.4 0.00 0.03 0.03 48 1018.1
20260905170608 22 291 3.2 11.3 0.00 0.03 0.03 47 1018.1
20260905165612 23 301 6.4 14.5 0.00 0.03 0.03 47 1018.0
20260905164617 23 296 8.0 14.5 0.00 0.03 0.03 46 1017.9
20260905163610 23 279 9.7 16.1 0.00 0.03 0.03 46 1017.9
20260905162617 23 291 9.7 22.5 0.00 0.03 0.03 45 1018.1
20260905161559 23 300 8.0 20.9 0.00 0.03 0.03 44 1018.0
20260905160603 24 326 8.0 20.9 0.00 0.03 0.03 44 1018.0
20260905155627 24 266 8.0 22.5 0.00 0.03 0.03 43 1018.0
20260905154621 24 312 8.0 14.5 0.00 0.03 0.03 43 1018.1
20260905153606 23 287 8.0 17.7 0.00 0.03 0.03 43 1017.9
20260905152610 24 282 9.7 17.7 0.00 0.03 0.03 42 1017.7
20260905151634 23 297 9.7 17.7 0.00 0.03 0.03 42 1018.0
20260905150638 24 313 11.3 25.7 0.00 0.03 0.03 41 1018.1
20260905145633 24 307 12.9 27.4 0.00 0.03 0.03 40 1017.8
20260905144617 25 311 9.7 20.9 0.00 0.03 0.03 40 1017.8
20260905143518 25 320 9.7 25.7 0.00 0.03 0.03 38 1017.8
20260905142520 26 295 12.9 20.9 0.00 0.03 0.03 38 1017.6
20260905141524 26 331 9.7 24.1 0.00 0.03 0.03 37 1017.6
20260905140601 26 304 14.5 35.4 0.00 0.03 0.03 36 1017.9
20260905135543 26 313 12.9 24.1 0.00 0.03 0.03 37 1017.6
20260905134527 26 324 8.0 22.5 0.00 0.03 0.03 36 1017.6
20260905133609 26 301 14.5 29.0 0.00 0.03 0.03 36 1017.6
20260905132533 26 299 14.5 25.7 0.00 0.03 0.03 37 1017.6
20260905131527 26 344 9.7 27.4 0.00 0.03 0.03 37 1017.6
20260905130541 26 313 14.5 33.8 0.00 0.03 0.03 37 1017.5
20260905125605 26 312 12.9 29.0 0.00 0.03 0.03 39 1017.7
20260905124611 26 316 14.5 27.4 0.00 0.03 0.03 40 1017.6
20260905123554 25 280 14.5 22.5 0.00 0.03 0.03 41 1017.7
20260905122618 24 322 16.1 30.6 0.00 0.03 0.03 45 1017.9
20260905121552 23 307 9.7 25.7 0.00 0.03 0.03 51 1018.0
20260905120617 21 306 6.4 12.9 0.03 0.03 0.03 56 1018.0
20260905115540 21 293 6.4 16.1 0.03 0.03 0.03 57 1018.0
20260905114544 20 327 9.7 24.1 0.03 0.03 0.03 61 1018.1
20260905113609 20 310 3.2 9.7 0.03 0.03 0.03 60 1018.2
20260905112543 21 317 8.0 14.5 0.03 0.03 0.03 56 1018.4
20260905111626 22 314 9.7 27.4 0.00 0.00 0.00 50 1018.3
20260905110631 23 336 9.7 20.9 0.00 0.00 0.00 43 1018.0
20260905105553 23 310 12.9 24.1 0.00 0.00 0.00 41 1017.8
20260905104617 24 320 12.9 24.1 0.00 0.00 0.00 41 1017.6
20260905103550 24 289 9.7 22.5 0.00 0.00 0.00 41 1017.6
20260905102544 24 320 12.9 25.7 0.00 0.00 0.00 40 1017.7
20260905101548 25 322 14.5 30.6 0.00 0.00 0.00 40 1017.8
20260905100612 25 328 16.1 40.2 0.00 0.00 0.00 39 1017.8
20260905095616 25 330 12.9 30.6 0.00 0.00 0.00 41 1017.9
20260905094601 25 324 9.7 17.7 0.00 0.00 0.00 42 1018.0
20260905093554 25 347 11.3 24.1 0.00 0.00 0.00 41 1018.0
20260905092617 25 336 12.9 22.5 0.00 0.00 0.00 41 1018.1
20260905091621 25 316 14.5 33.8 0.00 0.00 0.00 40 1018.2
20260905090558 25 324 16.1 37.0 0.00 0.00 0.00 42 1018.0
20260905085717 25 339 17.7 35.4 0.00 0.00 0.00 43 1018.1
20260905084601 25 337 14.5 29.0 0.00 0.00 0.00 48 1017.9
20260905083555 24 347 12.9 29.0 0.00 0.00 0.00 50 1017.6
20260905082620 24 330 17.7 40.2 0.00 0.00 0.00 48 1017.5
20260905081604 24 322 17.7 46.7 0.00 0.00 0.00 51 1017.3
20260905080608 23 333 19.3 29.0 0.00 0.00 0.00 53 1017.0
20260905075652 24 334 14.5 37.0 0.00 0.00 0.00 51 1016.6
20260905074647 24 323 16.1 35.4 0.00 0.00 0.00 51 1016.3
20260905073650 25 285 19.3 37.0 0.00 0.00 0.00 49 1015.8
20260905072634 26 306 11.3 33.8 0.00 0.00 0.00 48 1015.7
20260905071659 27 343 12.9 27.4 0.00 0.00 0.00 46 1015.0
20260905070517 27 292 14.5 33.8 0.00 0.00 0.00 45 1014.8
20260905065737 27 310 20.9 37.0 0.00 0.00 0.00 45 1014.5
20260905064701 27 322 19.3 41.8 0.00 0.00 0.00 44 1014.2
20260905063538 27 326 9.7 20.9 0.00 0.00 0.00 46 1014.0
20260905062659 26 290 11.3 17.7 0.00 0.00 0.00 49 1013.9
20260905061537 24 281 4.8 11.3 0.00 0.00 0.00 55 1013.7
20260905060542 23 256 1.6 4.8 0.00 0.00 0.00 55 1013.5
20260905055555 23 263 1.6 6.4 0.00 0.00 0.00 56 1013.5
20260905054539 22 151 0.0 1.6 0.00 0.00 0.00 59 1013.6
20260905053543 22 135 3.2 4.8 0.00 0.00 0.00 59 1013.4
20260905052527 21 0.0 0.0 0.00 0.00 0.00 60 1013.1
20260905051552 21 252 1.6 3.2 0.00 0.00 0.00 60 1013.2
20260905050526 20 267 4.8 9.7 0.00 0.00 0.00 61 1013.2
20260905045550 20 247 4.8 6.4 0.00 0.00 0.00 62 1012.9
20260905044534 19 256 3.2 6.4 0.00 0.00 0.00 62 1012.9
20260905043539 20 249 1.6 4.8 0.00 0.00 0.00 61 1012.9
20260905042542 20 210 3.2 9.7 0.00 0.00 0.00 60 1012.9
20260905041536 20 155 3.2 6.4 0.00 0.00 0.00 58 1012.7
20260905040601 21 268 1.6 3.2 0.00 0.00 0.00 57 1012.6
20260905035544 21 281 3.2 4.8 0.00 0.00 0.00 56 1012.4
20260905034546 21 294 4.8 6.4 0.00 0.00 0.00 56 1012.4
20260905033611 22 289 4.8 9.7 0.00 0.00 0.00 56 1012.4
20260905032728 22 297 4.8 9.7 0.00 0.00 0.00 55 1012.4
20260905031539 22 296 6.4 12.9 0.00 0.00 0.00 55 1012.4
20260905030644 21 316 6.4 12.9 0.00 0.00 0.00 56 1012.4
20260905025548 21 325 6.4 16.1 0.00 0.00 0.00 56 1012.4
20260905024552 21 300 6.4 14.5 0.00 0.00 0.00 56 1012.5
20260905023558 21 321 8.0 16.1 0.00 0.00 0.00 57 1012.5
20260905022550 21 312 9.7 14.5 0.00 0.00 0.00 58 1012.3
20260905021554 20 309 8.0 17.7 0.00 0.00 0.00 60 1012.5
20260905020638 19 304 11.3 20.9 0.00 0.00 0.00 61 1012.4
20260905015623 18 293 4.8 9.7 0.00 0.00 0.00 60 1012.5
20260905014607 19 270 3.2 4.8 0.00 0.00 0.00 59 1012.6
20260905013640 19 261 3.2 4.8 0.00 0.00 0.00 59 1012.5
20260905012604 19 258 1.6 3.2 0.00 0.00 0.00 59 1012.5
20260905011608 19 238 3.2 4.8 0.00 0.00 0.00 59 1012.4
20260905010613 19 236 1.6 4.8 0.00 0.00 0.00 59 1012.4
20260905005617 19 245 3.2 6.4 0.00 0.00 0.00 59 1012.4
20260905004611 19 240 3.2 4.8 0.00 0.00 0.00 59 1012.5
20260905003633 19 270 1.6 3.2 0.00 0.00 0.00 58 1012.4
20260905002618 20 274 1.6 1.6 0.00 0.00 0.00 57 1012.4
20260905001633 20 274 0.0 1.6 0.00 0.00 0.00 56 1012.6
20260905000617 20 274 0.0 1.6 0.00 0.00 0.00 55 1012.5
20260904235516 21 273 1.6 3.2 0.00 0.00 0.00 54 1012.7